Overview Statistics Trail Chart Weather Telemetry Raw packets
 

This is the latest recevied weather packets stored in our database for station/object HG5CJW-10. If no packets are shown the sender has not sent any weather packets the latest 10 day(s).

<< 19 20 21 22 23 24 25 >>
Time Temp. Humidity Pressure Rain* Wind** Luminosity Snow
1788157026 20.56° C 53% 1035.8 hPa - - - -
1788156126 20.56° C 53% 1035.8 hPa - - - -
1788155226 20.56° C 53% 1036 hPa - - - -
1788152525 20.56° C 53% 1035.8 hPa - - - -
1788151625 20° C 52% 1035.1 hPa - - - -
1788150725 20.56° C 52% 1035.8 hPa - - - -
1788149825 20.56° C 52% 1035.7 hPa - - - -
1788148925 21.11° C 52% 1035.7 hPa - - - -
1788148025 20.56° C 52% 1035.1 hPa - - - -
1788147120 21.11° C 52% 1035.8 hPa - - - -
1788144419 21.11° C 52% 1035.7 hPa - - - -
1788143519 21.67° C 52% 1035.8 hPa - - - -
1788142619 21.67° C 52% 1035.8 hPa - - - -
1788141719 21.67° C 51% 1035.9 hPa - - - -
1788140819 21.67° C 51% 1036 hPa - - - -
1788139919 21.67° C 51% 1035.9 hPa - - - -
1788138119 21.67° C 51% 1035.3 hPa - - - -
1788137219 22.22° C 51% 1035.9 hPa - - - -
1788136319 22.22° C 51% 1036 hPa - - - -
1788135419 22.22° C 51% 1036 hPa - - - -
1788134519 22.22° C 51% 1035.7 hPa - - - -
1788133613 22.78° C 50% 1036 hPa - - - -
1788132713 22.78° C 50% 1036.1 hPa - - - -
1788131813 22.78° C 50% 1036.1 hPa - - - -
1788130913 23.33° C 50% 1036 hPa - - - -

* Rain since midnight (hover to see other rain measurements)
** Current wind speed in m/s (hover to see current wind gust speed)